This is the latest recevied weather packets stored in our database for station/object KC5TIL-3. If no packets are shown the sender has not sent any weather packets the latest 10 day(s).
| Time | Temp. | Humidity | Pressure | Rain* | Wind** | Luminosity | Snow |
|---|---|---|---|---|---|---|---|
| 1777553259 | 16.67° C | 66% | 1011.8 hPa | 0 mm | 1.79 m/s, 79° | - | - |
| 1777552655 | 16.67° C | 66% | 1011.8 hPa | 0 mm | 2.68 m/s, 13° | - | - |
| 1777552357 | 16.67° C | 66% | 1011.8 hPa | 0 mm | 2.24 m/s, 338° | - | - |
| 1777552058 | 16.67° C | 66% | 1011.8 hPa | 0 mm | 2.68 m/s, 60° | - | - |
| 1777551757 | 16.67° C | 66% | 1011.8 hPa | 0 mm | 2.24 m/s, 77° | - | - |
| 1777551455 | 16.67° C | 66% | 1011.8 hPa | 0 mm | 2.68 m/s, 27° | - | - |
| 1777551157 | 16.67° C | 66% | 1011.8 hPa | 0 mm | 2.24 m/s, 351° | - | - |
| 1777550855 | 16.67° C | 66% | 1011.8 hPa | 0 mm | 2.24 m/s, 332° | - | - |
| 1777550558 | 16.67° C | 66% | 1011.8 hPa | 0 mm | 1.79 m/s, 340° | - | - |
| 1777549957 | 16.67° C | 66% | 1010.8 hPa | 0 mm | 3.13 m/s, 123° | - | - |
| 1777549055 | 16.67° C | 66% | 1010.8 hPa | 0 mm | 1.79 m/s, 68° | - | - |
| 1777548758 | 16.67° C | 66% | 1010.8 hPa | 0 mm | 2.24 m/s, 277° | - | - |
| 1777548158 | 16.67° C | 65% | 1010.8 hPa | 0 mm | 2.68 m/s, 78° | - | - |
| 1777547860 | 16.67° C | 65% | 1010.8 hPa | 0 mm | 2.24 m/s, 344° | - | - |
| 1777547260 | 16.67° C | 64% | 1011.8 hPa | 0 mm | 2.24 m/s, 1° | - | - |
| 1777546962 | 16.67° C | 63% | 1011.8 hPa | 0 mm | 1.79 m/s, 139° | - | - |
| 1777546362 | 17.22° C | 61% | 1011.8 hPa | 0 mm | 1.79 m/s, 55° | - | - |
| 1777546065 | 17.22° C | 60% | 1011.8 hPa | 0 mm | 1.79 m/s, 72° | - | - |
| 1777545766 | 17.22° C | 59% | 1011.8 hPa | 0 mm | 2.24 m/s, 56° | - | - |
| 1777545465 | 17.22° C | 59% | 1011.8 hPa | 0 mm | 1.79 m/s, 58° | - | - |
| 1777545167 | 17.22° C | 59% | 1011.8 hPa | 0 mm | 1.34 m/s, 291° | - | - |
| 1777544869 | 17.22° C | 59% | 1011.8 hPa | 0 mm | 2.68 m/s, 346° | - | - |
| 1777544567 | 17.22° C | 58% | 1011.8 hPa | 0 mm | 1.79 m/s, 23° | - | - |
| 1777544270 | 17.22° C | 58% | 1010.8 hPa | 0 mm | 2.68 m/s, 32° | - | - |
| 1777543971 | 17.22° C | 58% | 1010.8 hPa | 0 mm | 2.68 m/s, 268° | - | - |
* Rain latest hour (hover to see other rain measurements)
** Current wind speed in m/s (hover to see current wind gust speed)